Veribest, TX

11:02 PM CDT on August 29, 2016 (GMT -0500)
San Angelo Regional-Mathis

Weather History for KSJT - July, 2013

Change the Weather History Date:

Saturday, July 6, 2013

  Actual Average Record
Temperature  
Mean Temperature 86 °F 83 °F  
Max Temperature 98 °F 94 °F 104 °F (1939)
Min Temperature 73 °F 71 °F 58 °F (1968)
Degree Days  
Heating Degree Days 0 0  
Month to date heating degree days 0 0  
Since 1 June heating degree days 0 0  
Since 1 July heating degree days 0 0  
Cooling Degree Days 21 18  
Month to date cooling degree days 89 104  
Year to date cooling degree days 1246 1028  
Since 1 June cooling degree days 650 568  
Growing Degree Days 36 (Base 50)    
Moisture  
Dew Point 52 °F    
Average Humidity 38    
Maximum Humidity 57    
Minimum Humidity 18    
Precipitation  
Precipitation 0.00 in 0.04 in 2.14 in (1936)
Month to date precipitation 0.01 0.28  
Year to date precipitation 7.79 10.89  
Sea Level Pressure  
Sea Level Pressure 29.84 in    
Wind  
Wind Speed 11 mph (SSE)    
Max Wind Speed 21 mph    
Max Gust Speed 28 mph    
Visibility 10 miles    
Events      
T = Trace of Precipitation, MM = Missing Value Source: NWS Daily Summary

Daily Weather History Graph

Daily Weather History Graph

Search for Another Location

Airport or City:

Trip Planner

Search our weather history database for the weather conditions in past years. The results will help you decide how hot, cold, wet, or windy it might be!

Date:

Astronomy

Jul. 06, 2013 Rise Set
Actual Time 6:43 AM CDT 8:49 PM CDT
Civil Twilight 6:15 AM CDT 9:17 PM CDT
Nautical Twilight 5:41 AM CDT 9:51 PM CDT
Astronomical Twilight 5:05 AM CDT 10:27 PM CDT
Moon 5:27 AM CDT (7/6) 7:36 PM CDT (7/6)
Length of Visible Light 15h 01m
Length of Day
14h 06m
Waning Crescent, 2% of the Moon is Illuminated
Jul 6
Waning Crescent
Jul 8
New
Jul 15
First Quarter
Jul 22
Full
Jul 29
Last Quarter

Hourly Weather History & Observations

Time (CDT) Temp. Heat Index Dew Point Humidity Pressure Visibility Wind Dir Wind Speed Gust Speed Precip Events Conditions
12:51 AM 82.9 °F 81.8 °F 53.1 °F 36% 29.86 in 10.0 mi SSE 9.2 mph - N/A   Clear
1:51 AM 82.0 °F 81.3 °F 54.0 °F 38% 29.86 in 10.0 mi SSE 8.1 mph - N/A   Clear
2:51 AM 79.0 °F - 54.0 °F 42% 29.86 in 10.0 mi SSE 6.9 mph - N/A   Clear
3:51 AM 78.1 °F - 55.0 °F 45% 29.85 in 10.0 mi South 10.4 mph - N/A   Clear
4:51 AM 77.0 °F - 57.0 °F 50% 29.86 in 10.0 mi SSE 10.4 mph 17.3 mph N/A   Clear
5:51 AM 75.0 °F - 57.9 °F 55% 29.87 in 10.0 mi South 9.2 mph - N/A   Clear
6:51 AM 73.9 °F - 57.0 °F 55% 29.88 in 10.0 mi South 9.2 mph - N/A   Clear
7:51 AM 73.9 °F - 57.9 °F 57% 29.89 in 10.0 mi South 6.9 mph - N/A   Clear
8:51 AM 77.0 °F - 60.1 °F 56% 29.90 in 10.0 mi South 16.1 mph 21.9 mph N/A   Clear
9:51 AM 82.0 °F 81.6 °F 55.9 °F 41% 29.90 in 10.0 mi South 13.8 mph - N/A   Clear
10:51 AM 87.1 °F 85.7 °F 55.9 °F 35% 29.88 in 10.0 mi South 11.5 mph - N/A   Clear
11:51 AM 91.0 °F 88.7 °F 54.0 °F 28% 29.87 in 10.0 mi SSE 10.4 mph 19.6 mph N/A   Clear
12:51 PM 93.0 °F - 50.0 °F 23% 29.85 in 10.0 mi SSE 5.8 mph 20.7 mph N/A   Clear
1:51 PM 95.0 °F - 50.0 °F 22% 29.84 in 10.0 mi SE 11.5 mph 25.3 mph N/A   Clear
2:51 PM 97.0 °F - 50.0 °F 20% 29.81 in 10.0 mi SSE 13.8 mph 25.3 mph N/A   Clear
3:51 PM 97.0 °F - 50.0 °F 20% 29.79 in 10.0 mi SSE 15.0 mph 19.6 mph N/A   Clear
4:51 PM 98.1 °F - 48.9 °F 19% 29.78 in 10.0 mi ESE 13.8 mph 26.5 mph N/A   Clear
5:51 PM 98.1 °F - 48.0 °F 18% 29.76 in 10.0 mi SE 16.1 mph 23.0 mph N/A   Clear
6:51 PM 96.1 °F - 46.0 °F 18% 29.76 in 10.0 mi SE 12.7 mph 19.6 mph N/A   Clear
7:51 PM 95.0 °F - 46.9 °F 19% 29.77 in 10.0 mi SSE 10.4 mph - N/A   Clear
8:51 PM 91.0 °F - 48.0 °F 23% 29.79 in 10.0 mi SE 8.1 mph - N/A   Clear
9:51 PM 89.1 °F - 50.0 °F 26% 29.82 in 10.0 mi SE 11.5 mph - N/A   Clear
10:51 PM 86.0 °F - 51.1 °F 30% 29.84 in 10.0 mi SE 9.2 mph - N/A   Clear
11:51 PM 84.0 °F - 51.1 °F 32% 29.85 in 10.0 mi SSE 9.2 mph - N/A   Clear